TimeCST,TemperatureF,Dew PointF,Humidity,Sea Level PressureIn,VisibilityMPH,Wind Direction,Wind SpeedMPH,Gust SpeedMPH,PrecipitationIn,Events,Conditions,WindDirDegrees,DateUTC
12:15 AM,39.2,33.6,80,29.47,10.0,South,8.1,-,N/A,,Clear,170,2013-11-16 06:15:00
12:35 AM,38.3,33.1,81,29.46,10.0,SSE,8.1,-,N/A,,Clear,160,2013-11-16 06:35:00
12:55 AM,38.3,33.4,83,29.45,10.0,SSE,6.9,-,N/A,,Clear,160,2013-11-16 06:55:00
1:15 AM,39.6,34.0,80,29.42,10.0,SSE,8.1,-,N/A,,Clear,150,2013-11-16 07:15:00
1:35 AM,38.3,33.3,82,29.42,10.0,South,8.1,-,N/A,,Clear,170,2013-11-16 07:35:00
1:55 AM,37.4,32.9,84,29.41,10.0,SSE,6.9,-,N/A,,Clear,160,2013-11-16 07:55:00
2:15 AM,36.7,32.9,86,29.40,10.0,SSE,8.1,-,N/A,,Clear,160,2013-11-16 08:15:00
2:35 AM,37.4,33.4,86,29.39,10.0,SSE,8.1,-,N/A,,Clear,160,2013-11-16 08:35:00
2:55 AM,37.0,33.1,86,29.38,10.0,South,8.1,-,N/A,,Clear,170,2013-11-16 08:55:00
3:15 AM,36.9,32.9,86,29.37,10.0,SSE,8.1,-,N/A,,Clear,160,2013-11-16 09:15:00
3:35 AM,37.4,33.6,86,29.35,10.0,SSE,10.4,-,N/A,,Clear,160,2013-11-16 09:35:00
3:55 AM,37.4,33.8,87,29.34,10.0,SSE,9.2,-,N/A,,Clear,150,2013-11-16 09:55:00
4:15 AM,38.1,34.7,87,29.32,10.0,SSE,6.9,-,N/A,,Clear,150,2013-11-16 10:15:00
4:35 AM,38.5,35.1,87,29.34,10.0,South,6.9,-,N/A,,Clear,190,2013-11-16 10:35:00
4:55 AM,37.9,34.7,88,29.33,10.0,South,4.6,-,N/A,,Clear,190,2013-11-16 10:55:00
5:15 AM,37.9,34.9,89,29.33,7.0,SSW,3.5,-,N/A,,Scattered Clouds,210,2013-11-16 11:15:00
5:35 AM,38.7,35.8,89,29.31,7.0,SSE,4.6,-,N/A,,Scattered Clouds,160,2013-11-16 11:35:00
5:55 AM,39.2,36.5,90,29.31,7.0,Calm,Calm,-,N/A,,Scattered Clouds,0,2013-11-16 11:55:00
6:15 AM,39.6,36.5,89,29.30,7.0,SSE,5.8,-,N/A,,Mostly Cloudy,150,2013-11-16 12:15:00
6:35 AM,39.4,36.5,89,29.29,7.0,SSE,5.8,-,N/A,,Overcast,150,2013-11-16 12:35:00
6:55 AM,39.2,36.5,90,29.29,7.0,South,4.6,-,N/A,,Mostly Cloudy,180,2013-11-16 12:55:00
7:15 AM,39.2,36.5,90,29.29,7.0,SSW,4.6,-,N/A,,Mostly Cloudy,210,2013-11-16 13:15:00
7:35 AM,39.4,36.5,89,29.27,7.0,WNW,5.8,-,N/A,,Mostly Cloudy,290,2013-11-16 13:35:00
7:55 AM,39.6,36.5,89,29.28,7.0,Calm,Calm,-,N/A,,Overcast,0,2013-11-16 13:55:00
8:15 AM,39.6,36.5,89,29.29,7.0,SSW,3.5,-,N/A,,Scattered Clouds,200,2013-11-16 14:15:00
8:35 AM,39.9,36.0,86,29.28,10.0,WSW,6.9,-,N/A,,Scattered Clouds,250,2013-11-16 14:35:00
8:55 AM,40.3,36.5,86,29.28,10.0,West,5.8,-,N/A,,Clear,260,2013-11-16 14:55:00
9:15 AM,42.4,36.5,79,29.28,10.0,WSW,5.8,-,N/A,,Clear,240,2013-11-16 15:15:00
9:35 AM,44.6,36.5,73,29.29,10.0,West,9.2,-,N/A,,Clear,270,2013-11-16 15:35:00
9:55 AM,46.9,35.6,65,29.28,10.0,West,10.4,-,N/A,,Clear,280,2013-11-16 15:55:00
10:15 AM,50.5,32.9,51,29.28,10.0,West,13.8,18.4,N/A,,Clear,280,2013-11-16 16:15:00
10:35 AM,53.8,28.9,39,29.29,10.0,WNW,17.3,23.0,N/A,,Clear,290,2013-11-16 16:35:00
10:55 AM,54.9,26.1,33,29.29,10.0,West,15.0,24.2,N/A,,Clear,280,2013-11-16 16:55:00
11:15 AM,55.0,22.5,28,29.29,10.0,West,19.6,24.2,N/A,,Clear,280,2013-11-16 17:15:00
11:35 AM,56.3,20.8,25,29.29,10.0,West,15.0,21.9,N/A,,Clear,270,2013-11-16 17:35:00
11:55 AM,57.2,19.0,23,29.29,10.0,West,15.0,24.2,N/A,,Clear,280,2013-11-16 17:55:00
12:15 PM,58.1,17.2,20,29.29,10.0,West,16.1,27.6,N/A,,Clear,270,2013-11-16 18:15:00
12:35 PM,58.3,16.0,19,29.27,10.0,West,18.4,24.2,N/A,,Clear,260,2013-11-16 18:35:00
12:55 PM,59.0,15.4,18,29.28,10.0,West,17.3,25.3,N/A,,Clear,260,2013-11-16 18:55:00
1:15 PM,59.0,14.7,18,29.28,10.0,WSW,19.6,27.6,N/A,,Clear,250,2013-11-16 19:15:00
1:35 PM,59.5,13.5,16,29.28,10.0,WSW,20.7,31.1,N/A,,Clear,250,2013-11-16 19:35:00
1:55 PM,59.0,13.1,16,29.29,10.0,West,19.6,29.9,N/A,,Clear,270,2013-11-16 19:55:00
2:15 PM,60.1,13.1,16,29.29,10.0,West,20.7,31.1,N/A,,Clear,260,2013-11-16 20:15:00
2:35 PM,59.9,9.7,14,29.29,10.0,WSW,21.9,31.1,N/A,,Clear,250,2013-11-16 20:35:00
2:55 PM,59.0,12.0,16,29.29,10.0,West,19.6,29.9,N/A,,Clear,270,2013-11-16 20:55:00
3:15 PM,57.7,12.4,17,29.29,10.0,West,16.1,29.9,N/A,,Clear,270,2013-11-16 21:15:00
3:35 PM,57.2,14.4,19,29.29,10.0,West,20.7,25.3,N/A,,Clear,270,2013-11-16 21:35:00
3:55 PM,55.4,16.2,21,29.31,10.0,West,17.3,25.3,N/A,,Clear,270,2013-11-16 21:55:00
4:15 PM,55.2,17.1,22,29.31,10.0,West,13.8,-,N/A,,Clear,270,2013-11-16 22:15:00
4:35 PM,54.9,18.0,24,29.31,10.0,West,13.8,19.6,N/A,,Clear,270,2013-11-16 22:35:00
4:55 PM,53.8,18.5,25,29.31,10.0,West,10.4,-,N/A,,Clear,270,2013-11-16 22:55:00
5:15 PM,51.6,19.4,28,29.33,10.0,West,10.4,-,N/A,,Clear,270,2013-11-16 23:15:00
5:35 PM,48.9,21.2,34,29.33,10.0,West,6.9,-,N/A,,Clear,280,2013-11-16 23:35:00
5:55 PM,47.5,21.9,36,29.36,10.0,WSW,5.8,-,N/A,,Clear,240,2013-11-16 23:55:00
6:15 PM,46.6,22.1,38,29.37,10.0,WSW,8.1,-,N/A,,Clear,250,2013-11-17 00:15:00
6:35 PM,47.8,21.7,36,29.37,10.0,SW,4.6,-,N/A,,Clear,230,2013-11-17 00:35:00
6:55 PM,45.7,22.6,40,29.38,10.0,SW,6.9,-,N/A,,Clear,230,2013-11-17 00:55:00
7:15 PM,44.8,22.3,41,29.37,10.0,WSW,3.5,-,N/A,,Clear,240,2013-11-17 01:15:00
7:35 PM,44.1,21.6,41,29.37,10.0,West,8.1,-,N/A,,Clear,260,2013-11-17 01:35:00
7:55 PM,43.7,21.0,41,29.38,10.0,SW,6.9,-,N/A,,Clear,220,2013-11-17 01:55:00
8:15 PM,43.7,21.7,42,29.38,10.0,SSW,6.9,-,N/A,,Clear,200,2013-11-17 02:15:00
8:35 PM,43.0,22.5,44,29.39,10.0,SSW,6.9,-,N/A,,Clear,210,2013-11-17 02:35:00
8:55 PM,42.6,21.6,43,29.39,10.0,SW,5.8,-,N/A,,Scattered Clouds,230,2013-11-17 02:55:00
9:15 PM,43.7,21.9,42,29.39,10.0,SSW,6.9,-,N/A,,Overcast,200,2013-11-17 03:15:00
9:35 PM,42.8,21.9,44,29.39,10.0,SSW,5.8,-,N/A,,Mostly Cloudy,200,2013-11-17 03:35:00
9:55 PM,42.1,22.5,46,29.39,10.0,Calm,Calm,-,N/A,,Mostly Cloudy,0,2013-11-17 03:55:00
10:15 PM,42.3,22.3,45,29.39,10.0,Calm,Calm,-,N/A,,Mostly Cloudy,0,2013-11-17 04:15:00
10:35 PM,42.6,22.5,45,29.39,10.0,Calm,Calm,-,N/A,,Overcast,0,2013-11-17 04:35:00
10:55 PM,42.8,23.4,46,29.40,10.0,South,3.5,-,N/A,,Overcast,190,2013-11-17 04:55:00
11:15 PM,40.1,26.1,57,29.40,10.0,Calm,Calm,-,N/A,,Overcast,0,2013-11-17 05:15:00
11:35 PM,40.8,23.5,50,29.39,10.0,NNW,5.8,-,N/A,,Overcast,340,2013-11-17 05:35:00
11:55 PM,41.2,23.2,49,29.40,10.0,North,8.1,-,N/A,,Overcast,360,2013-11-17 05:55:00